| time (UTC) | temp F | wind direction | speed MPH | gust MPH | rain 1hr in | rain 24hr in | rain mn in | humidity % | barometer mb |
| 20260506023658 | 56 | 231 | 2.0 | 4.0 | 0.00 | 0.00 | 0.00 | 75 | 1011.1 |
| 20260506023157 | 56 | 135 | 2.0 | 4.0 | 0.00 | 0.00 | 0.00 | 76 | 1011.2 |
| 20260506022659 | 55 | 156 | 0.0 | 2.0 | 0.00 | 0.00 | 0.00 | 76 | 1011.5 |
| 20260506022158 | 55 | 111 | 0.0 | 1.0 | 0.00 | 0.00 | 0.00 | 73 | 1011.4 |
| 20260506021656 | 56 | 271 | 0.0 | 0.0 | 0.00 | 0.00 | 0.00 | 72 | 1011.3 |
| 20260506021200 | 56 | 272 | 0.0 | 1.0 | 0.00 | 0.00 | 0.00 | 73 | 1011.4 |
| 20260506020159 | 56 | 285 | 0.0 | 2.0 | 0.00 | 0.00 | 0.00 | 72 | 1011.3 |
| 20260506015157 | 57 | 285 | 0.0 | 1.0 | 0.00 | 0.00 | 0.00 | 69 | 1011.3 |
| 20260506014656 | 58 | 311 | 0.0 | 2.0 | 0.00 | 0.00 | 0.00 | 69 | 1011.7 |
| 20260506014201 | 58 | 311 | 0.0 | 2.0 | 0.00 | 0.00 | 0.00 | 68 | 1011.5 |
| 20260506013644 | 58 | 218 | 0.0 | 3.0 | 0.00 | 0.00 | 0.00 | 68 | 1011.3 |
| 20260506013146 | 58 | 217 | 0.0 | 3.0 | 0.00 | 0.00 | 0.00 | 68 | 1011.5 |
| 20260506012646 | 58 | 271 | 0.0 | 2.0 | 0.00 | 0.00 | 0.00 | 68 | 1011.3 |
| 20260506012145 | 59 | 353 | 2.0 | 2.0 | 0.00 | 0.00 | 0.00 | 67 | 1011.5 |
| 20260506011647 | 59 | 351 | 0.0 | 2.0 | 0.00 | 0.00 | 0.00 | 65 | 1011.4 |
| 20260506011144 | 59 | 50 | 0.0 | 2.0 | 0.00 | 0.00 | 0.00 | 65 | 1011.7 |
| 20260506010645 | 60 | 224 | 0.0 | 4.0 | 0.00 | 0.00 | 0.00 | 64 | 1011.5 |
| 20260506010146 | 60 | 146 | 0.0 | 4.0 | 0.00 | 0.00 | 0.00 | 64 | 1011.5 |
| 20260506005143 | 60 | 201 | 1.0 | 2.0 | 0.00 | 0.00 | 0.00 | 63 | 1011.5 |
| 20260506004646 | 61 | 107 | 0.0 | 2.0 | 0.00 | 0.00 | 0.00 | 63 | 1011.5 |
| 20260506004145 | 61 | 237 | 0.0 | 2.0 | 0.00 | 0.00 | 0.00 | 63 | 1011.7 |
| 20260506003148 | 62 | 126 | 1.0 | 4.0 | 0.00 | 0.00 | 0.00 | 61 | 1011.6 |
| 20260506002646 | 62 | 107 | 2.0 | 4.0 | 0.00 | 0.00 | 0.00 | 61 | 1011.8 |
| 20260506002146 | 62 | 80 | 2.0 | 4.0 | 0.00 | 0.00 | 0.00 | 61 | 1011.5 |
| 20260506001648 | 62 | 136 | 2.0 | 3.0 | 0.00 | 0.00 | 0.00 | 61 | 1011.5 |
| 20260506001145 | 62 | 89 | 1.0 | 7.0 | 0.00 | 0.00 | 0.00 | 61 | 1011.6 |
| 20260506000148 | 62 | 140 | 2.0 | 9.0 | 0.00 | 0.00 | 0.00 | 60 | 1011.6 |
| 20260505235145 | 62 | 96 | 2.0 | 8.0 | 0.00 | 0.00 | 0.00 | 60 | 1011.5 |
| 20260505234648 | 63 | 219 | 0.0 | 8.0 | 0.00 | 0.00 | 0.00 | 59 | 1011.8 |
| 20260505234145 | 63 | 229 | 0.0 | 4.0 | 0.00 | 0.00 | 0.00 | 59 | 1011.4 |
| 20260505233646 | 63 | 99 | 1.0 | 9.0 | 0.00 | 0.00 | 0.00 | 59 | 1011.6 |
| 20260505232646 | 63 | 127 | 2.0 | 6.0 | 0.00 | 0.00 | 0.00 | 59 | 1011.7 |
| 20260505231145 | 63 | 120 | 2.0 | 4.0 | 0.00 | 0.00 | 0.00 | 58 | 1011.8 |
| 20260505230149 | 63 | 146 | 3.0 | 9.0 | 0.00 | 0.00 | 0.00 | 57 | 1011.7 |
| 20260505225645 | 63 | 231 | 6.0 | 9.0 | 0.00 | 0.00 | 0.00 | 57 | 1012.0 |
| 20260505225144 | 63 | 105 | 1.0 | 4.0 | 0.00 | 0.00 | 0.00 | 56 | 1011.6 |
| 20260505224649 | 64 | 108 | 2.0 | 3.0 | 0.00 | 0.00 | 0.00 | 57 | 1011.9 |
| 20260505224146 | 64 | 231 | 3.0 | 6.0 | 0.00 | 0.00 | 0.00 | 56 | 1011.9 |
| 20260505223645 | 64 | 112 | 0.0 | 10.0 | 0.00 | 0.00 | 0.00 | 56 | 1012.0 |
| 20260505222646 | 64 | 194 | 3.0 | 10.0 | 0.00 | 0.00 | 0.00 | 56 | 1011.9 |
| 20260505221647 | 64 | 121 | 1.0 | 10.0 | 0.00 | 0.00 | 0.00 | 55 | 1011.8 |
| 20260505221145 | 64 | 89 | 1.0 | 10.0 | 0.00 | 0.00 | 0.00 | 55 | 1011.9 |
| 20260505220646 | 64 | 141 | 1.0 | 11.0 | 0.00 | 0.00 | 0.00 | 55 | 1011.7 |
| 20260505220146 | 64 | 135 | 3.0 | 15.0 | 0.00 | 0.00 | 0.00 | 55 | 1011.8 |
| 20260505215644 | 64 | 210 | 0.0 | 15.0 | 0.00 | 0.00 | 0.00 | 54 | 1011.9 |
| 20260505215144 | 64 | 226 | 6.0 | 11.0 | 0.00 | 0.00 | 0.00 | 54 | 1011.8 |
| 20260505214648 | 65 | 267 | 2.0 | 11.0 | 0.00 | 0.00 | 0.00 | 54 | 1011.7 |
| 20260505213643 | 65 | 187 | 4.0 | 13.0 | 0.00 | 0.00 | 0.00 | 53 | 1011.7 |
| 20260505213147 | 65 | 105 | 4.0 | 13.0 | 0.00 | 0.00 | 0.00 | 53 | 1011.6 |
| 20260505212645 | 65 | 92 | 4.0 | 11.0 | 0.00 | 0.00 | 0.00 | 53 | 1011.6 |
| 20260505212144 | 65 | 168 | 6.0 | 11.0 | 0.00 | 0.00 | 0.00 | 54 | 1011.7 |
| 20260505211647 | 65 | 149 | 1.0 | 11.0 | 0.00 | 0.00 | 0.00 | 53 | 1011.7 |
| 20260505211144 | 65 | 107 | 2.0 | 10.0 | 0.00 | 0.00 | 0.00 | 53 | 1011.9 |
| 20260505210643 | 66 | 136 | 6.0 | 11.0 | 0.00 | 0.00 | 0.00 | 53 | 1011.9 |
| 20260505205643 | 66 | 122 | 3.0 | 7.0 | 0.00 | 0.00 | 0.00 | 53 | 1011.8 |
| 20260505204145 | 66 | 109 | 5.0 | 14.0 | 0.00 | 0.00 | 0.00 | 52 | 1011.9 |
| 20260505203146 | 66 | 64 | 2.0 | 13.0 | 0.00 | 0.00 | 0.00 | 52 | 1011.6 |
| 20260505202644 | 66 | 76 | 3.0 | 8.0 | 0.00 | 0.00 | 0.00 | 51 | 1011.7 |
| 20260505202144 | 66 | 140 | 6.0 | 14.0 | 0.00 | 0.00 | 0.00 | 51 | 1011.7 |
| 20260505201646 | 67 | 145 | 4.0 | 14.0 | 0.00 | 0.00 | 0.00 | 51 | 1011.7 |
| 20260505201144 | 67 | 91 | 1.0 | 9.0 | 0.00 | 0.00 | 0.00 | 50 | 1011.7 |
| 20260505200643 | 67 | 214 | 2.0 | 11.0 | 0.00 | 0.00 | 0.00 | 50 | 1011.7 |
| 20260505200148 | 67 | 231 | 0.0 | 11.0 | 0.00 | 0.00 | 0.00 | 49 | 1011.4 |
| 20260505195646 | 67 | 32 | 6.0 | 10.0 | 0.00 | 0.00 | 0.00 | 48 | 1011.7 |
| 20260505195144 | 68 | 145 | 2.0 | 15.0 | 0.00 | 0.00 | 0.00 | 48 | 1011.5 |
| 20260505194646 | 68 | 145 | 4.0 | 15.0 | 0.00 | 0.00 | 0.00 | 47 | 1011.6 |
| 20260505194146 | 68 | 159 | 3.0 | 14.0 | 0.00 | 0.00 | 0.00 | 46 | 1011.6 |
| 20260505193147 | 68 | 140 | 4.0 | 10.0 | 0.00 | 0.00 | 0.00 | 45 | 1011.4 |
| 20260505192644 | 69 | 212 | 4.0 | 11.0 | 0.00 | 0.00 | 0.00 | 45 | 1011.3 |
| 20260505192146 | 69 | 196 | 1.0 | 11.0 | 0.00 | 0.00 | 0.00 | 45 | 1011.4 |
| 20260505191143 | 69 | 120 | 2.0 | 9.0 | 0.00 | 0.00 | 0.00 | 45 | 1011.2 |
| 20260505190148 | 70 | 124 | 5.0 | 11.0 | 0.00 | 0.00 | 0.00 | 44 | 1011.2 |
| 20260505185144 | 70 | 232 | 2.0 | 8.0 | 0.00 | 0.00 | 0.00 | 44 | 1011.3 |
| 20260505184143 | 70 | 78 | 0.0 | 8.0 | 0.00 | 0.00 | 0.00 | 42 | 1011.0 |
| 20260505183644 | 71 | 140 | 4.0 | 6.0 | 0.00 | 0.00 | 0.00 | 42 | 1011.2 |
| 20260505182644 | 70 | 89 | 1.0 | 4.0 | 0.00 | 0.00 | 0.00 | 41 | 1011.0 |
| 20260505182144 | 71 | 331 | 1.0 | 3.0 | 0.00 | 0.00 | 0.00 | 41 | 1011.0 |
| 20260505181647 | 71 | 168 | 1.0 | 3.0 | 0.00 | 0.00 | 0.00 | 40 | 1010.9 |
| 20260505181144 | 71 | 60 | 1.0 | 3.0 | 0.00 | 0.00 | 0.00 | 40 | 1010.9 |
| 20260505180648 | 72 | 81 | 1.0 | 7.0 | 0.00 | 0.00 | 0.00 | 39 | 1010.7 |
| 20260505175644 | 72 | 65 | 1.0 | 6.0 | 0.00 | 0.00 | 0.00 | 38 | 1010.7 |
| 20260505175145 | 73 | 100 | 2.0 | 6.0 | 0.00 | 0.00 | 0.00 | 37 | 1010.9 |
| 20260505174649 | 73 | 50 | 2.0 | 4.0 | 0.00 | 0.00 | 0.00 | 37 | 1010.7 |
| 20260505174145 | 73 | 91 | 2.0 | 7.0 | 0.00 | 0.00 | 0.00 | 37 | 1011.1 |
| 20260505173644 | 74 | 165 | 3.0 | 7.0 | 0.00 | 0.00 | 0.00 | 36 | 1011.0 |
| 20260505173146 | 74 | 234 | 1.0 | 9.0 | 0.00 | 0.00 | 0.00 | 36 | 1011.0 |
| 20260505172645 | 74 | 103 | 2.0 | 9.0 | 0.00 | 0.00 | 0.00 | 36 | 1011.0 |
| 20260505172146 | 74 | 94 | 2.0 | 13.0 | 0.00 | 0.00 | 0.00 | 36 | 1010.7 |
| 20260505171147 | 75 | 114 | 2.0 | 15.0 | 0.00 | 0.00 | 0.00 | 35 | 1010.9 |
| 20260505170646 | 76 | 13 | 0.0 | 9.0 | 0.00 | 0.00 | 0.00 | 35 | 1010.9 |
| 20260505170148 | 76 | 214 | 2.0 | 11.0 | 0.00 | 0.00 | 0.00 | 34 | 1010.6 |
| 20260505165645 | 76 | 92 | 2.0 | 11.0 | 0.00 | 0.00 | 0.00 | 34 | 1010.6 |
| 20260505165144 | 76 | 170 | 2.0 | 13.0 | 0.00 | 0.00 | 0.00 | 33 | 1010.7 |
| 20260505164648 | 76 | 116 | 4.0 | 13.0 | 0.00 | 0.00 | 0.00 | 32 | 1010.5 |
| 20260505164131 | 77 | 137 | 4.0 | 14.0 | 0.00 | 0.00 | 0.00 | 31 | 1010.6 |
| 20260505163637 | 77 | 237 | 8.0 | 14.0 | 0.00 | 0.00 | 0.00 | 31 | 1010.6 |
| 20260505163135 | 78 | 126 | 3.0 | 11.0 | 0.00 | 0.00 | 0.00 | 30 | 1010.5 |
| 20260505162633 | 78 | 218 | 4.0 | 11.0 | 0.00 | 0.00 | 0.00 | 29 | 1010.7 |
| 20260505162135 | 78 | 206 | 7.0 | 14.0 | 0.00 | 0.00 | 0.00 | 29 | 1010.7 |
| 20260505161633 | 79 | 119 | 1.0 | 14.0 | 0.00 | 0.00 | 0.00 | 29 | 1010.6 |
| 20260505161134 | 79 | 121 | 3.0 | 9.0 | 0.00 | 0.00 | 0.00 | 28 | 1010.6 |
| 20260505160635 | 80 | 160 | 3.0 | 10.0 | 0.00 | 0.00 | 0.00 | 27 | 1010.9 |
| 20260505160138 | 80 | 92 | 5.0 | 10.0 | 0.00 | 0.00 | 0.00 | 27 | 1010.9 |
| 20260505153132 | 79 | 116 | 4.0 | 17.0 | 0.00 | 0.00 | 0.00 | 28 | 1010.9 |
| 20260505152630 | 80 | 171 | 4.0 | 10.0 | 0.00 | 0.00 | 0.00 | 28 | 1011.0 |
| 20260505152130 | 79 | 174 | 6.0 | 10.0 | 0.00 | 0.00 | 0.00 | 28 | 1010.9 |
| 20260505151631 | 78 | 70 | 2.0 | 14.0 | 0.00 | 0.00 | 0.00 | 30 | 1010.9 |
| 20260505151131 | 78 | 104 | 2.0 | 14.0 | 0.00 | 0.00 | 0.00 | 30 | 1011.2 |
| 20260505150631 | 78 | 239 | 5.0 | 11.0 | 0.00 | 0.00 | 0.00 | 30 | 1011.2 |
| 20260505150132 | 78 | 227 | 4.0 | 10.0 | 0.00 | 0.00 | 0.00 | 29 | 1011.4 |
| 20260505140603 | 79 | 220 | 4.0 | 14.0 | 0.00 | 0.00 | 0.00 | 27 | 1011.9 |
| 20260505140115 | 79 | 277 | 2.0 | 16.0 | 0.00 | 0.00 | 0.00 | 27 | 1011.7 |
| 20260505124541 | 81 | 105 | 4.0 | 14.0 | 0.00 | 0.00 | 0.00 | 27 | 1011.9 |
| 20260505123545 | 81 | 104 | 5.0 | 16.0 | 0.00 | 0.00 | 0.00 | 25 | 1012.3 |
| 20260505122542 | 81 | 209 | 6.0 | 13.0 | 0.00 | 0.00 | 0.00 | 25 | 1012.3 |
| 20260505122043 | 81 | 114 | 1.0 | 14.0 | 0.00 | 0.00 | 0.00 | 28 | 1012.5 |
| 20260505121540 | 81 | 89 | 9.0 | 14.0 | 0.00 | 0.00 | 0.00 | 27 | 1012.3 |
| 20260505121042 | 81 | 134 | 5.0 | 14.0 | 0.00 | 0.00 | 0.00 | 28 | 1012.4 |
| 20260505120545 | 80 | 110 | 6.0 | 13.0 | 0.00 | 0.00 | 0.00 | 27 | 1012.4 |
| 20260505115540 | 81 | 100 | 5.0 | 18.0 | 0.00 | 0.00 | 0.00 | 27 | 1012.5 |
| 20260505115043 | 81 | 233 | 9.0 | 15.0 | 0.00 | 0.00 | 0.00 | 27 | 1012.8 |
| 20260505114541 | 81 | 194 | 4.0 | 17.0 | 0.00 | 0.00 | 0.00 | 27 | 1012.9 |
| 20260505113542 | 82 | 149 | 4.0 | 16.0 | 0.00 | 0.00 | 0.00 | 26 | 1012.8 |
| 20260505113041 | 82 | 326 | 2.0 | 15.0 | 0.00 | 0.00 | 0.00 | 26 | 1012.6 |
| 20260505112543 | 82 | 136 | 6.0 | 14.0 | 0.00 | 0.00 | 0.00 | 27 | 1012.7 |
| 20260505112039 | 82 | 118 | 5.0 | 14.0 | 0.00 | 0.00 | 0.00 | 27 | 1012.9 |
| 20260505111540 | 81 | 50 | 3.0 | 11.0 | 0.00 | 0.00 | 0.00 | 27 | 1012.9 |
| 20260505111040 | 81 | 156 | 8.0 | 13.0 | 0.00 | 0.00 | 0.00 | 28 | 1013.1 |
| 20260505110541 | 81 | 168 | 4.0 | 13.0 | 0.00 | 0.00 | 0.00 | 28 | 1013.1 |
| 20260505101531 | 80 | 110 | 4.0 | 18.0 | 0.00 | 0.00 | 0.00 | 26 | 1013.6 |
| 20260505100533 | 80 | 159 | 8.0 | 11.0 | 0.00 | 0.00 | 0.00 | 27 | 1013.9 |
| 20260505100031 | 80 | 248 | 6.0 | 11.0 | 0.00 | 0.00 | 0.00 | 28 | 1013.9 |
| 20260505095035 | 79 | 122 | 3.0 | 13.0 | 0.00 | 0.00 | 0.00 | 31 | 1013.9 |
| 20260505094530 | 79 | 76 | 3.0 | 14.0 | 0.00 | 0.00 | 0.00 | 31 | 1013.8 |
| 20260505094030 | 78 | 113 | 4.0 | 14.0 | 0.00 | 0.00 | 0.00 | 30 | 1013.9 |
| 20260505093533 | 78 | 187 | 8.0 | 16.0 | 0.00 | 0.00 | 0.00 | 29 | 1013.7 |
| 20260505092534 | 77 | 138 | 4.0 | 13.0 | 0.00 | 0.00 | 0.00 | 33 | 1014.0 |
| 20260505092034 | 77 | 126 | 6.0 | 13.0 | 0.00 | 0.00 | 0.00 | 34 | 1014.0 |
| 20260505091532 | 77 | 87 | 4.0 | 13.0 | 0.00 | 0.00 | 0.00 | 35 | 1014.1 |
| 20260505091030 | 76 | 135 | 4.0 | 10.0 | 0.00 | 0.00 | 0.00 | 35 | 1014.1 |
| 20260505090534 | 76 | 85 | 5.0 | 11.0 | 0.00 | 0.00 | 0.00 | 36 | 1014.1 |
| 20260505090031 | 75 | 255 | 7.0 | 11.0 | 0.00 | 0.00 | 0.00 | 36 | 1014.2 |
| 20260505085530 | 75 | 152 | 4.0 | 14.0 | 0.00 | 0.00 | 0.00 | 36 | 1014.5 |
| 20260505084530 | 74 | 117 | 6.0 | 13.0 | 0.00 | 0.00 | 0.00 | 38 | 1014.5 |
| 20260505084031 | 74 | 144 | 8.0 | 13.0 | 0.00 | 0.00 | 0.00 | 37 | 1014.2 |
| 20260505083533 | 73 | 102 | 4.0 | 14.0 | 0.00 | 0.00 | 0.00 | 39 | 1014.5 |
| 20260505083023 | 73 | 112 | 7.0 | 14.0 | 0.00 | 0.00 | 0.00 | 40 | 1014.5 |
| 20260505082509 | 72 | 127 | 4.0 | 11.0 | 0.00 | 0.00 | 0.00 | 41 | 1014.5 |
| 20260505082010 | 72 | 180 | 4.0 | 11.0 | 0.00 | 0.00 | 0.00 | 40 | 1014.5 |
| 20260505081512 | 72 | 116 | 4.0 | 14.0 | 0.00 | 0.00 | 0.00 | 41 | 1014.4 |
| 20260505081012 | 72 | 171 | 3.0 | 14.0 | 0.00 | 0.00 | 0.00 | 41 | 1014.4 |
| 20260505080510 | 72 | 121 | 3.0 | 8.0 | 0.00 | 0.00 | 0.00 | 40 | 1014.8 |
| 20260505080010 | 72 | 136 | 2.0 | 8.0 | 0.00 | 0.00 | 0.00 | 41 | 1014.7 |
| 20260505075510 | 72 | 87 | 4.0 | 9.0 | 0.00 | 0.00 | 0.00 | 42 | 1014.9 |
| 20260505075009 | 71 | 131 | 7.0 | 14.0 | 0.00 | 0.00 | 0.00 | 42 | 1014.8 |
| 20260505074010 | 70 | 115 | 2.0 | 6.0 | 0.00 | 0.00 | 0.00 | 43 | 1014.7 |
| 20260505073011 | 69 | 126 | 2.0 | 9.0 | 0.00 | 0.00 | 0.00 | 44 | 1014.9 |
| 20260505072509 | 69 | 71 | 4.0 | 9.0 | 0.00 | 0.00 | 0.00 | 43 | 1014.7 |
| 20260505072012 | 69 | 232 | 1.0 | 9.0 | 0.00 | 0.00 | 0.00 | 43 | 1015.1 |
| 20260505071517 | 69 | 115 | 4.0 | 8.0 | 0.00 | 0.00 | 0.00 | 43 | 1015.0 |
| 20260505071010 | 68 | 110 | 5.0 | 7.0 | 0.00 | 0.00 | 0.00 | 43 | 1015.1 |
| 20260505070511 | 68 | 118 | 2.0 | 7.0 | 0.00 | 0.00 | 0.00 | 45 | 1014.8 |
| 20260505070009 | 67 | 235 | 1.0 | 7.0 | 0.00 | 0.00 | 0.00 | 45 | 1014.7 |
| 20260505065510 | 67 | 119 | 1.0 | 6.0 | 0.00 | 0.00 | 0.00 | 44 | 1015.1 |
| 20260505065010 | 67 | 88 | 1.0 | 6.0 | 0.00 | 0.00 | 0.00 | 45 | 1015.0 |
| 20260505064510 | 66 | 138 | 2.0 | 9.0 | 0.00 | 0.00 | 0.00 | 45 | 1015.0 |
| 20260505064011 | 66 | 139 | 3.0 | 9.0 | 0.00 | 0.00 | 0.00 | 45 | 1015.2 |
| 20260505063512 | 65 | 135 | 2.0 | 7.0 | 0.00 | 0.00 | 0.00 | 46 | 1015.1 |
| 20260505063011 | 65 | 65 | 1.0 | 6.0 | 0.00 | 0.00 | 0.00 | 45 | 1015.1 |
| 20260505062511 | 65 | 108 | 3.0 | 4.0 | 0.00 | 0.00 | 0.00 | 46 | 1015.1 |
| 20260505062016 | 64 | 115 | 0.0 | 4.0 | 0.00 | 0.00 | 0.00 | 48 | 1015.1 |
| 20260505061500 | 63 | 43 | 0.0 | 4.0 | 0.00 | 0.00 | 0.00 | 49 | 1015.1 |
| 20260505060959 | 63 | 27 | 2.0 | 4.0 | 0.00 | 0.00 | 0.00 | 50 | 1015.2 |
| 20260505055959 | 62 | 142 | 0.0 | 3.0 | 0.00 | 0.00 | 0.00 | 51 | 1015.4 |
| 20260505054959 | 61 | 78 | 0.0 | 4.0 | 0.00 | 0.00 | 0.00 | 51 | 1015.3 |
| 20260505054500 | 60 | 168 | 0.0 | 3.0 | 0.00 | 0.00 | 0.00 | 52 | 1015.3 |
| 20260505053959 | 60 | 112 | 2.0 | 3.0 | 0.00 | 0.00 | 0.00 | 51 | 1015.3 |
| 20260505053500 | 60 | 131 | 0.0 | 3.0 | 0.00 | 0.00 | 0.00 | 51 | 1015.4 |
| 20260505052959 | 60 | 236 | 0.0 | 3.0 | 0.00 | 0.00 | 0.00 | 53 | 1015.2 |
| 20260505052458 | 59 | 134 | 1.0 | 2.0 | 0.00 | 0.00 | 0.00 | 54 | 1015.1 |
| 20260505052001 | 58 | 46 | 0.0 | 3.0 | 0.00 | 0.00 | 0.00 | 57 | 1015.5 |
| 20260505051459 | 58 | 46 | 0.0 | 3.0 | 0.00 | 0.00 | 0.00 | 57 | 1015.4 |
| 20260505050957 | 57 | 96 | 0.0 | 0.0 | 0.00 | 0.00 | 0.00 | 58 | 1015.4 |
| 20260505050502 | 56 | 96 | 0.0 | 0.0 | 0.00 | 0.00 | 0.00 | 65 | 1015.3 |
| 20260505041445 | 43 | 97 | 0.0 | 0.0 | 0.00 | 0.00 | 0.00 | 80 | 1015.6 |
| 20260505040947 | 43 | 97 | 0.0 | 0.0 | 0.00 | 0.00 | 0.00 | 80 | 1015.4 |
| 20260505040446 | 43 | 97 | 0.0 | 0.0 | 0.00 | 0.00 | 0.00 | 80 | 1015.3 |
| 20260505035944 | 42 | 97 | 0.0 | 0.0 | 0.00 | 0.00 | 0.00 | 79 | 1015.1 |
| 20260505034946 | 42 | 97 | 0.0 | 0.0 | 0.00 | 0.00 | 0.00 | 79 | 1015.2 |
| 20260505033949 | 42 | 97 | 0.0 | 0.0 | 0.00 | 0.00 | 0.00 | 79 | 1015.3 |
| 20260505033445 | 43 | 97 | 0.0 | 0.0 | 0.00 | 0.00 | 0.00 | 79 | 1015.2 |
| 20260505032449 | 43 | 97 | 0.0 | 0.0 | 0.00 | 0.00 | 0.00 | 79 | 1015.3 |
| 20260505031945 | 43 | 97 | 0.0 | 0.0 | 0.00 | 0.00 | 0.00 | 79 | 1015.3 |
| 20260505031444 | 43 | 97 | 0.0 | 0.0 | 0.00 | 0.00 | 0.00 | 79 | 1015.3 |
| 20260505030948 | 43 | 97 | 0.0 | 0.0 | 0.00 | 0.00 | 0.00 | 79 | 1015.3 |
| 20260505030444 | 43 | 97 | 0.0 | 0.0 | 0.00 | 0.00 | 0.00 | 79 | 1015.1 |
| 20260505025945 | 43 | 97 | 0.0 | 0.0 | 0.00 | 0.00 | 0.00 | 79 | 1015.4 |
| 20260505025448 | 43 | 97 | 0.0 | 0.0 | 0.00 | 0.00 | 0.00 | 79 | 1015.5 |
| 20260505024944 | 43 | 97 | 0.0 | 0.0 | 0.00 | 0.00 | 0.00 | 79 | 1015.3 |
| 20260505024444 | 43 | 97 | 0.0 | 0.0 | 0.00 | 0.00 | 0.00 | 78 | 1015.4 |
| 20260505023948 | 43 | 97 | 0.0 | 0.0 | 0.00 | 0.00 | 0.00 | 78 | 1015.3 |